DW8295 Weather Reports


time (UTC)temp
C
wind
direction
speed
KPH
gust
KPH
rain 1hr
cm
rain 24hr
cm
rain mn
cm
humidity
%
barometer
mb
20260508035626 8 325 0.0 4.8 0.00 0.10 0.08 53 1006.6
20260508035125 8 325 0.0 4.8 0.00 0.10 0.08 53 1006.5
20260508034625 9 333 0.0 3.2 0.00 0.10 0.08 52 1006.6
20260508034125 9 333 0.0 3.2 0.00 0.10 0.08 51 1006.5
20260508033847 9 333 0.0 0.0 0.00 0.10 0.08 51 1006.6
20260508033125 10 333 0.0 0.0 0.00 0.13 0.08 50 1006.6
20260508032853 10 333 0.0 3.2 0.00 0.13 0.08 50 1006.6
20260508032125 10 333 0.0 4.8 0.00 0.13 0.08 47 1006.6
20260508031625 10 333 0.0 4.8 0.00 0.13 0.08 47 1006.5
20260508031127 10 333 0.0 4.8 0.00 0.13 0.08 47 1006.5
20260508030625 10 333 0.0 4.8 0.00 0.13 0.08 46 1006.6
20260508030125 10 333 0.0 6.4 0.00 0.13 0.08 47 1006.7
20260508025848 10 333 1.6 6.4 0.00 0.13 0.08 46 1006.6
20260508025125 11 333 0.0 8.0 0.00 0.13 0.08 45 1006.6
20260508024625 11 332 1.6 8.0 0.00 0.13 0.08 45 1006.5
20260508024125 11 5 1.6 14.5 0.00 0.13 0.08 45 1006.5
20260508023625 11 317 1.6 14.5 0.00 0.13 0.08 44 1006.5
20260508023350 11 355 1.6 14.5 0.00 0.13 0.08 44 1006.5
20260508022623 11 333 1.6 14.5 0.00 0.13 0.08 44 1006.3
20260508022116 11 0 1.6 4.8 0.00 0.13 0.08 44 1006.2
20260508021843 11 0 1.6 9.7 0.00 0.13 0.08 44 1006.2
20260508021105 12 0 3.2 16.1 0.00 0.13 0.08 43 1006.1
20260508020559 12 341 1.6 16.1 0.00 0.13 0.08 42 1006.1
20260508020053 12 26 1.6 9.7 0.00 0.13 0.08 41 1006.0
20260508015546 12 347 3.2 12.9 0.00 0.13 0.08 40 1005.9
20260508015041 12 350 3.2 12.9 0.00 0.13 0.08 40 1005.8
20260508014534 12 355 3.2 12.9 0.00 0.13 0.08 39 1005.8
20260508014028 12 26 4.8 16.1 0.00 0.13 0.08 40 1005.7
20260508013748 12 329 6.4 16.1 0.00 0.13 0.08 39 1005.6
20260508013243 12 336 4.8 16.1 0.00 0.13 0.08 39 1005.6
20260508012510 12 333 3.2 9.7 0.00 0.13 0.08 39 1005.5
20260508012003 13 344 3.2 12.9 0.00 0.13 0.08 40 1005.4
20260508011456 13 321 1.6 12.9 0.00 0.13 0.08 40 1005.3
20260508010951 12 329 1.6 9.7 0.00 0.13 0.08 40 1005.4
20260508010924 12 301 1.6 8.0 0.00 0.13 0.08 41 1005.3
20260508005938 12 318 1.6 8.0 0.00 0.13 0.08 41 1005.2
20260508005656 12 275 0.0 4.8 0.00 0.13 0.08 44 1005.2
20260508004926 12 271 0.0 3.2 0.00 0.13 0.08 48 1005.2
20260508004420 12 271 0.0 0.0 0.00 0.13 0.08 50 1005.2
20260508003914 13 271 0.0 0.0 0.00 0.15 0.08 48 1005.0
20260508003408 13 271 0.0 0.0 0.00 0.15 0.08 44 1004.9
20260508003126 13 271 0.0 3.2 0.00 0.15 0.08 44 1004.8
20260508002357 13 271 0.0 3.2 0.00 0.15 0.08 42 1004.7
20260508001851 13 271 0.0 1.6 0.00 0.15 0.08 41 1004.5
20260508001344 13 271 0.0 1.6 0.00 0.15 0.08 41 1004.5
20260508000840 13 270 0.0 1.6 0.00 0.15 0.08 40 1004.4
20260508000334 13 270 0.0 1.6 0.00 0.15 0.08 39 1004.4
20260507235826 14 270 0.0 4.8 0.00 0.15 0.08 39 1004.4
20260507235546 14 269 0.0 4.8 0.00 0.15 0.08 38 1004.3
20260507234814 14 270 0.0 6.4 0.00 0.15 0.08 38 1004.3
20260507234307 14 270 1.6 12.9 0.00 0.15 0.08 37 1004.2
20260507233806 14 253 3.2 12.9 0.00 0.15 0.08 36 1004.2
20260507233753 15 263 3.2 14.5 0.00 0.15 0.08 36 1004.2
20260507232807 15 294 4.8 17.7 0.00 0.15 0.08 36 1004.2
20260507232306 15 298 3.2 17.7 0.00 0.15 0.08 35 1004.2
20260507232023 15 289 3.2 14.5 0.00 0.15 0.08 36 1004.2
20260507231303 15 287 4.8 17.7 0.00 0.15 0.08 36 1004.0
20260507230801 15 324 4.8 17.7 0.00 0.15 0.08 35 1004.0
20260507230302 15 227 4.8 16.1 0.00 0.15 0.08 36 1003.9
20260507225801 15 276 6.4 17.7 0.00 0.18 0.08 35 1003.8
20260507225305 15 270 8.0 19.3 0.00 0.18 0.08 35 1003.8
20260507224801 16 315 6.4 19.3 0.00 0.18 0.08 34 1003.7
20260507224301 16 234 6.4 22.5 0.00 0.18 0.08 35 1003.6
20260507223800 16 300 6.4 22.5 0.00 0.18 0.08 34 1003.5
20260507223754 16 274 6.4 16.1 0.00 0.18 0.08 33 1003.5
20260507222801 16 244 6.4 16.1 0.00 0.18 0.08 33 1003.5
20260507222301 16 319 8.0 24.1 0.00 0.20 0.08 33 1003.5
20260507221800 17 248 9.7 24.1 0.00 0.20 0.08 32 1003.4
20260507221254 17 250 9.7 24.1 0.00 0.20 0.08 32 1003.3
20260507220748 17 255 9.7 24.1 0.00 0.20 0.08 31 1003.2
20260507220242 17 238 6.4 17.7 0.00 0.23 0.08 33 1003.2
20260507215736 17 285 6.4 20.9 0.00 0.25 0.08 33 1003.2
20260507215451 17 254 6.4 20.9 0.00 0.28 0.08 31 1003.2
20260507214944 17 273 6.4 20.9 0.00 0.30 0.08 32 1003.3
20260507214219 17 305 9.7 20.9 0.00 0.33 0.08 31 1003.3
20260507213712 17 338 9.7 22.5 0.00 0.33 0.08 32 1003.3
20260507213427 17 307 9.7 22.5 0.00 0.36 0.08 32 1003.2
20260507212917 18 279 9.7 22.5 0.00 0.38 0.08 31 1003.2
20260507212155 18 286 9.7 20.9 0.00 0.38 0.08 32 1003.1
20260507211648 18 285 8.0 19.3 0.00 0.41 0.08 32 1003.1
20260507211142 18 265 6.4 22.5 0.00 0.43 0.08 32 1003.1
20260507210637 18 228 6.4 22.5 0.00 0.46 0.08 32 1003.1
20260507210130 18 286 8.0 20.9 0.00 0.48 0.08 33 1003.1
20260507205624 18 232 9.7 20.9 0.00 0.48 0.08 33 1003.1
20260507205119 18 246 8.0 20.9 0.00 0.51 0.08 33 1003.0
20260507204613 18 332 9.7 20.9 0.00 0.51 0.08 34 1002.9
20260507204330 18 227 6.4 20.9 0.00 0.53 0.08 35 1002.9
20260507203600 17 252 6.4 22.5 0.00 0.53 0.08 33 1002.8
20260507203055 17 281 9.7 22.5 0.00 0.56 0.08 32 1002.9
20260507202811 17 289 9.7 24.1 0.00 0.56 0.08 33 1003.0
20260507202042 18 266 9.7 24.1 0.00 0.56 0.08 32 1003.0
20260507201536 18 298 9.7 22.5 0.00 0.56 0.08 31 1003.0
20260507201030 18 231 9.7 20.9 0.00 0.56 0.08 30 1003.0
20260507200524 18 283 9.7 20.9 0.00 0.56 0.08 33 1002.9
20260507200019 18 329 8.0 19.3 0.00 0.58 0.08 32 1002.9
20260507195512 18 248 9.7 30.6 0.00 0.58 0.08 35 1003.0
20260507195237 18 272 12.9 30.6 0.00 0.61 0.08 33 1003.1
20260507194500 18 344 11.3 24.1 0.00 0.61 0.08 33 1003.1
20260507193955 18 259 8.0 19.3 0.00 0.61 0.08 34 1003.0
20260507193449 18 326 8.0 24.1 0.00 0.61 0.08 33 1002.9
20260507192942 18 219 9.7 24.1 0.00 0.61 0.08 32 1003.0
20260507192436 18 307 8.0 19.3 0.00 0.61 0.08 31 1003.2
20260507191930 18 286 8.0 20.9 0.00 0.61 0.08 30 1003.2
20260507191424 18 279 8.0 20.9 0.00 0.61 0.08 32 1003.1
20260507190918 18 295 9.7 20.9 0.00 0.61 0.08 32 1003.2
20260507190412 18 300 11.3 25.7 0.00 0.61 0.08 31 1003.2
20260507185906 18 323 11.3 25.7 0.00 0.61 0.08 33 1003.2
20260507185400 18 259 8.0 24.1 0.00 0.61 0.08 39 1003.3
20260507184854 18 266 8.0 19.3 0.00 0.61 0.08 40 1003.2
20260507184609 17 282 6.4 19.3 0.00 0.61 0.08 42 1003.4
20260507183843 17 328 8.0 19.3 0.00 0.61 0.08 42 1003.4
20260507183336 18 311 9.7 25.7 0.00 0.61 0.08 43 1003.4
20260507183317 17 297 9.7 25.7 0.00 0.61 0.08 42 1003.5
20260507182324 17 216 9.7 29.0 0.00 0.61 0.08 43 1003.5
20260507181818 17 301 9.7 29.0 0.00 0.61 0.08 42 1003.5
20260507181313 17 305 8.0 20.9 0.00 0.61 0.08 40 1003.5
20260507180806 17 257 8.0 19.3 0.00 0.61 0.08 43 1003.5
20260507180302 17 300 11.3 22.5 0.00 0.61 0.08 42 1003.5
20260507175754 17 227 11.3 22.5 0.00 0.61 0.08 42 1003.6
20260507175508 17 278 8.0 19.3 0.00 0.61 0.08 44 1003.6
20260507174742 17 292 9.7 24.1 0.00 0.61 0.08 46 1003.7
20260507174238 17 240 11.3 24.1 0.00 0.61 0.08 45 1003.7
20260507173731 17 216 12.9 29.0 0.00 0.61 0.08 45 1003.7
20260507173224 17 211 11.3 29.0 0.00 0.61 0.08 45 1003.7
20260507172719 17 232 9.7 24.1 0.00 0.61 0.08 46 1003.8
20260507172213 16 272 9.7 24.1 0.00 0.61 0.08 50 1003.8
20260507171706 16 269 9.7 22.5 0.00 0.61 0.08 50 1003.9
20260507171200 16 241 12.9 27.4 0.00 0.61 0.08 50 1003.8
20260507170654 16 282 11.3 27.4 0.00 0.61 0.08 51 1004.0
20260507170148 15 296 8.0 16.1 0.00 0.61 0.08 59 1003.9
20260507165642 15 198 6.4 19.3 0.00 0.61 0.08 68 1004.1
20260507165136 14 223 6.4 19.3 0.00 0.61 0.08 68 1004.1
20260507164846 14 178 4.8 14.5 0.00 0.61 0.08 72 1004.2
20260507164124 13 186 4.8 17.7 0.00 0.61 0.08 73 1004.3
20260507163620 13 161 6.4 17.7 0.00 0.61 0.08 75 1004.4
20260507163118 12 184 8.0 22.5 0.00 0.61 0.08 74 1004.4
20260507162835 12 190 8.0 22.5 0.00 0.61 0.08 72 1004.5
20260507162117 12 215 8.0 20.9 0.00 0.61 0.08 74 1004.5
20260507161618 12 181 9.7 20.9 0.00 0.61 0.08 75 1004.5
20260507161334 12 180 8.0 17.7 0.00 0.61 0.08 74 1004.7
20260507160617 12 209 6.4 17.7 0.00 0.61 0.08 74 1004.8
20260507160116 12 172 8.0 25.7 0.00 0.61 0.08 74 1004.9
20260507155617 12 209 9.7 25.7 0.00 0.61 0.08 73 1004.9
20260507155338 12 152 9.7 20.9 0.00 0.61 0.08 72 1005.1
20260507154618 13 168 8.0 20.9 0.00 0.61 0.08 71 1005.0
20260507154118 13 169 8.0 19.3 0.00 0.61 0.08 72 1004.9
20260507153615 13 168 9.7 25.7 0.00 0.61 0.08 73 1005.0
20260507153341 13 179 11.3 25.7 0.00 0.61 0.08 74 1005.1
20260507152836 13 184 11.3 24.1 0.00 0.61 0.08 76 1005.2
20260507152114 13 157 9.7 24.1 0.00 0.61 0.08 75 1005.2
20260507151615 13 154 8.0 19.3 0.00 0.61 0.08 77 1005.1
20260507151115 13 155 6.4 16.1 0.00 0.61 0.08 77 1005.2
20260507150609 13 175 6.4 16.1 0.00 0.61 0.08 75 1005.2
20260507145557 13 153 8.0 17.7 0.00 0.61 0.08 76 1005.2
20260507145051 14 149 8.0 16.1 0.00 0.61 0.08 75 1005.1
20260507144546 13 188 6.4 16.1 0.00 0.61 0.08 75 1005.1
20260507144039 13 209 6.4 14.5 0.00 0.61 0.08 77 1005.0
20260507143532 13 148 6.4 12.9 0.00 0.61 0.08 78 1005.1
20260507143026 13 191 4.8 11.3 0.00 0.61 0.08 77 1005.2
20260507142520 13 194 4.8 11.3 0.00 0.61 0.08 78 1005.2
20260507142015 13 161 4.8 12.9 0.00 0.61 0.08 78 1005.3
20260507141509 13 141 4.8 12.9 0.00 0.61 0.08 77 1005.4
20260507141002 13 185 4.8 12.9 0.00 0.61 0.08 78 1005.4
20260507140940 13 193 4.8 12.9 0.00 0.61 0.08 79 1005.6
20260507135951 13 180 6.4 14.5 0.00 0.61 0.08 78 1005.5
20260507135710 13 192 6.4 14.5 0.00 0.61 0.08 78 1005.5
20260507134949 13 217 6.4 14.5 0.00 0.61 0.08 77 1005.6
20260507134449 13 189 6.4 14.5 0.00 0.61 0.08 79 1005.6
20260507133948 13 186 3.2 11.3 0.00 0.61 0.08 78 1005.5
20260507133447 13 192 1.6 9.7 0.00 0.61 0.08 77 1005.5
20260507132947 13 271 1.6 11.3 0.00 0.61 0.08 74 1005.7
20260507132446 13 229 3.2 14.5 0.00 0.61 0.08 73 1005.7
20260507131947 13 249 3.2 14.5 0.00 0.61 0.08 74 1005.7
20260507131447 12 255 0.0 6.4 0.00 0.61 0.08 75 1005.7
20260507130944 12 271 1.6 9.7 0.00 0.61 0.08 76 1005.7
20260507130708 12 268 3.2 9.7 0.00 0.61 0.08 77 1005.8
20260507125944 12 285 1.6 11.3 0.00 0.61 0.08 77 1005.7
20260507125444 12 265 3.2 11.3 0.00 0.61 0.08 78 1005.8
20260507124944 12 279 4.8 14.5 0.00 0.61 0.08 78 1005.8
20260507124445 12 275 3.2 14.5 0.00 0.61 0.08 79 1005.9
20260507123944 11 275 1.6 11.3 0.00 0.61 0.08 80 1005.9
20260507123446 11 275 3.2 11.3 0.00 0.61 0.08 79 1005.9
20260507122939 11 318 3.2 12.9 0.00 0.61 0.08 79 1006.0
20260507122438 11 322 3.2 12.9 0.00 0.61 0.08 80 1005.9
20260507121939 11 257 3.2 12.9 0.00 0.61 0.08 81 1005.9
20260507121440 10 331 3.2 12.9 0.00 0.61 0.08 81 1005.8
20260507121421 10 319 3.2 14.5 0.00 0.61 0.08 82 1005.9
20260507120703 10 337 1.6 14.5 0.00 0.61 0.08 84 1005.9
20260507115938 10 325 0.0 6.4 0.00 0.61 0.08 86 1005.9
20260507115438 10 331 0.0 4.8 0.00 0.61 0.08 87 1006.0
20260507114939 10 340 0.0 4.8 0.00 0.61 0.08 87 1006.0
20260507114700 10 340 0.0 6.4 0.00 0.61 0.08 88 1005.9
20260507113936 10 342 0.0 6.4 0.00 0.61 0.08 88 1005.8
20260507113655 9 340 0.0 6.4 0.00 0.61 0.08 88 1005.8
20260507112937 9 340 0.0 4.8 0.00 0.61 0.08 88 1005.8
20260507112656 9 340 0.0 4.8 0.00 0.61 0.08 89 1005.8
20260507112200 9 340 0.0 3.2 0.00 0.61 0.08 89 1005.9
20260507111434 9 340 0.0 0.0 0.00 0.61 0.08 89 1006.0
20260507110936 8 340 0.0 0.0 0.00 0.61 0.08 89 1005.9
20260507110434 8 340 0.0 0.0 0.00 0.61 0.08 89 1005.9
20260507105934 8 340 0.0 4.8 0.00 0.61 0.08 89 1006.1
20260507105430 8 340 0.0 6.4 0.00 0.61 0.08 90 1006.1
20260507105157 8 341 0.0 6.4 0.00 0.61 0.08 90 1005.7
20260507104431 8 345 0.0 3.2 0.00 0.61 0.08 90 1005.8
20260507104154 8 344 0.0 0.0 0.00 0.61 0.08 90 1006.0
20260507103430 8 344 0.0 0.0 0.00 0.61 0.08 90 1006.5
20260507102930 8 344 0.0 0.0 0.00 0.61 0.08 90 1006.3
20260507102430 8 344 0.0 1.6 0.00 0.61 0.08 90 1006.1
20260507101930 8 344 0.0 4.8 0.00 0.61 0.08 90 1006.2
20260507101430 8 344 0.0 6.4 0.00 0.61 0.08 90 1006.2
20260507100926 8 344 0.0 6.4 0.00 0.61 0.08 90 1005.8
20260507100426 8 344 0.0 4.8 0.00 0.61 0.08 90 1005.8
20260507095926 8 344 0.0 0.0 0.00 0.61 0.08 90 1006.0
20260507095427 8 344 0.0 0.0 0.00 0.61 0.08 90 1005.9
20260507094926 8 344 0.0 1.6 0.00 0.61 0.08 91 1006.1
20260507094427 8 344 0.0 4.8 0.00 0.61 0.08 91 1005.8
20260507093926 9 344 0.0 4.8 0.00 0.61 0.08 91 1005.2
20260507093648 9 344 1.6 4.8 0.00 0.61 0.08 91 1005.4
20260507092927 9 345 0.0 4.8 0.00 0.61 0.08 91 1005.7
20260507092422 9 345 0.0 6.4 0.00 0.61 0.08 91 1005.6
20260507091922 9 345 1.6 8.0 0.00 0.61 0.08 91 1005.4
20260507091422 9 345 1.6 8.0 0.00 0.61 0.08 91 1005.1
20260507091409 9 344 1.6 8.0 0.00 0.61 0.08 91 1005.1
20260507090424 9 344 1.6 8.0 0.00 0.61 0.08 91 1005.5
20260507085923 9 328 1.6 12.9 0.00 0.61 0.08 91 1005.3
20260507085422 9 325 1.6 14.5 0.00 0.61 0.08 91 1005.4
20260507084922 9 335 1.6 14.5 0.00 0.61 0.08 92 1005.3
20260507084422 9 346 3.2 14.5 0.00 0.61 0.08 92 1005.4
20260507083924 9 347 3.2 14.5 0.00 0.61 0.08 92 1005.6
20260507083424 9 331 3.2 12.9 0.00 0.61 0.08 93 1005.8
20260507082922 9 309 1.6 11.3 0.00 0.61 0.08 93 1005.7
20260507082422 10 328 1.6 8.0 0.00 0.61 0.08 94 1005.5
20260507081922 10 336 1.6 6.4 0.00 0.61 0.08 94 1005.2
20260507081423 10 338 0.0 6.4 0.00 0.61 0.08 94 1005.2
20260507080922 10 338 0.0 8.0 0.00 0.61 0.08 94 1005.0
20260507080422 10 338 1.6 8.0 0.00 0.61 0.08 94 1004.8
20260507075922 10 345 1.6 8.0 0.00 0.61 0.08 95 1004.8
20260507075417 10 339 0.0 4.8 0.00 0.61 0.08 95 1004.9
20260507074911 10 339 0.0 3.2 0.00 0.61 0.08 95 1004.9
20260507074404 10 339 0.0 0.0 0.00 0.61 0.08 95 1005.4
20260507074128 10 339 0.0 3.2 0.00 0.61 0.08 95 1005.3
20260507073353 10 339 0.0 6.4 0.00 0.61 0.08 95 1005.0
20260507072846 10 339 0.0 6.4 0.00 0.61 0.08 95 1005.0
20260507072604 10 339 0.0 1.6 0.00 0.61 0.08 95 1004.9
20260507071834 10 339 0.0 1.6 0.00 0.61 0.08 95 1004.7
20260507071329 10 339 0.0 0.0 0.00 0.61 0.08 95 1004.5
20260507070823 10 339 0.0 1.6 0.00 0.61 0.08 95 1004.4
20260507070317 10 339 0.0 1.6 0.00 0.61 0.08 95 1004.5
20260507065811 10 339 0.0 1.6 0.00 0.61 0.08 95 1004.5
20260507065306 10 339 0.0 1.6 0.00 0.61 0.08 95 1004.4
20260507064804 10 339 0.0 0.0 0.00 0.61 0.08 95 1004.5
20260507064305 10 339 0.0 0.0 0.00 0.61 0.08 95 1004.4
20260507063804 10 339 0.0 0.0 0.00 0.61 0.08 95 1004.4
20260507063302 10 339 0.0 0.0 0.03 0.61 0.08 95 1004.5
20260507062800 10 339 0.0 0.0 0.03 0.61 0.08 95 1004.4
20260507062301 10 339 0.0 3.2 0.03 0.61 0.08 95 1004.5
20260507061758 10 339 0.0 3.2 0.03 0.61 0.08 95 1004.3
20260507061258 10 339 0.0 4.8 0.03 0.61 0.08 95 1004.2
20260507061026 10 339 0.0 4.8 0.03 0.61 0.08 95 1004.3
20260507060256 11 339 0.0 4.8 0.03 0.61 0.08 95 1004.4
20260507055755 11 339 0.0 4.8 0.03 0.61 0.08 95 1004.4
20260507055254 11 340 1.6 9.7 0.03 0.61 0.08 95 1004.3
20260507054755 11 339 3.2 12.9 0.05 0.61 0.08 95 1004.1
20260507054254 11 355 4.8 14.5 0.05 0.61 0.08 95 1004.1
20260507053755 11 327 3.2 14.5 0.05 0.61 0.08 95 1004.0
20260507053254 11 323 3.2 14.5 0.03 0.58 0.05 96 1004.0
20260507052754 11 17 3.2 12.9 0.03 0.58 0.05 95 1003.9
20260507052253 12 5 3.2 12.9 0.05 0.58 0.05 96 1004.0
20260507051748 12 14 1.6 6.4 0.05 0.58 0.05 96 1004.0
20260507051242 12 24 1.6 6.4 0.05 0.58 0.05 96 1004.2
20260507051003 12 235 1.6 11.3 0.05 0.58 0.05 96 1003.9
20260507050230 12 234 1.6 11.3 0.05 0.58 0.05 96 1003.8
20260507045723 12 244 1.6 12.9 0.08 0.58 0.05 96 1003.8
20260507045439 12 281 0.0 12.9 0.08 0.58 0.05 96 1003.7
20260507044710 12 249 0.0 4.8 0.05 0.56 0.03 96 1003.6
20260507044203 12 249 0.0 3.2 0.05 0.56 0.03 96 1003.3
20260507043657 12 249 0.0 4.8 0.05 0.56 0.03 96 1003.3
20260507043153 12 248 0.0 4.8 0.08 0.56 0.03 96 1003.4
20260507042645 11 248 0.0 3.2 0.05 0.53 0.03 96 1003.1
20260507042139 11 248 0.0 8.0 0.05 0.53 0.00 96 1003.2
20260507041633 11 248 0.0 8.0 0.05 0.53 0.00 97 1003.2
20260507041127 11 243 0.0 3.2 0.05 0.53 0.00 96 1003.2
20260507040621 11 243 0.0 6.4 0.05 0.53 0.00 96 1003.4
20260507040337 11 231 1.6 8.0 0.05 0.53 0.00 96 1003.6